Location: Cahas Mountain Overlook
(37.0833°N, 80.1000°W)
Time: 19:45:35
(UTC-04:00)

Tiros 1 - Pass Details

Date: 11 February 2026
Orbit: 618 x 649 km, 48.4° (Epoch: 13 March)

Event Time Altitude Azimuth Distance (km) Brightness Sun altitude
Rises 14:09:10 0° 295° (WNW) 2,886 10.5 34.4°
Reaches altitude 10° 14:12:03 10° 314° (NW) 1,978 9.6 34.2°
Maximum altitude 14:15:20 19° 0° (N) 1,469 8.7 33.8°
Drops below altitude 10° 14:18:36 10° 46° (NE) 1,978 9.3 33.5°
Sets 14:21:30 0° 65° (ENE) 2,886 10.1 33.2°
